Location: Arbon
(43.0005°N, 0.7472°E)
Time: 05:22:35
(UTC+00:00)

Vanguard 1 - Pass Details

Date: 29 November 2020
Orbit: 648 x 3834 km, 34.3° (Epoch: 21 January)

Event Time Altitude Azimuth Distance (km) Brightness Sun altitude
Rises 06:15:39 0° 250° (WSW) 3,601 - -9.3°
Exits shadow 06:15:55 - 249° (WSW) 3,508 12.5 -9.2°
Reaches altitude 10° 06:17:49 10° 244° (WSW) 2,885 12.1 -8.9°
Maximum altitude 06:24:38 50° 171° (S) 1,870 11.7 -7.7°
Drops below altitude 10° 06:36:58 10° 102° (ESE) 5,102 15.4 -5.7°
Sets 06:42:12 0° 98° (E) 6,630 16.1 -4.8°
